[[{"header":{"parameterUnit":"m.s-1","parameterCategory":1,"la1":30.2991,"la2":30.254,"lo1":-89.0895,"lo2":-89.0444,"dy":0.0017,"dx":0.0017,"nx":28,"ny":28,"refTime":"2025-01-24T03:00:00:Z","depth":0,"parameterNumber":2,"parameterNumberName":"U-component_of_WINDS"},"data":[0,0,0,0,0,0,0,0,0,0,0,0,0,0,0,0,0,0,0,0,0,0,0,0,0,0,0,0,0,0,0,0,0,0,0,0,0,0,0,0,0,0,0,0,0,0,0,0,0,0,0,0,0,0,0,0,0,0,-0.1329,-0.1328,0,-0.1285,-0.1285,-0.1284,-0.1248,-0.1248,-0.1247,-0.1247,-0.1203,-0.1203,-0.1202,0,0,0,0,0,0,0,0,0,0,0,0,0,-0.138,-0.1379,-0.1329,-0.1328,-0.1328,-0.1285,-0.1285,-0.1284,-0.1248,-0.1248,-0.1247,-0.1247,-0.1204,-0.1203,-0.1202,0,0,0,0,0,0,0,0,0,0,0,0,0,-0.1349,-0.1379,-0.1329,-0.1304,-0.1302,-0.1286,-0.1285,-0.1284,-0.1248,-0.1248,-0.1247,-0.1246,-0.1204,-0.1203,-0.1202,-0.1206,0,0,-0.1198,-0.1198,0,0,0,0,0,0,0,0,-0.1351,-0.1347,-0.1309,-0.1306,-0.1303,-0.1271,-0.1287,-0.1258,-0.1248,-0.1269,-0.1247,-0.1246,-0.1227,-0.1224,-0.1217,-0.1204,-0.1202,-0.1198,-0.1197,-0.1197,-0.1196,0,0,0,0,0,0,0,-0.1353,-0.1349,-0.1312,-0.1308,-0.1305,-0.1296,-0.1291,-0.1281,-0.1252,-0.1267,-0.1264,-0.1259,-0.1225,-0.1218,-0.1215,-0.1202,-0.1198,-0.1197,-0.1196,-0.1196,-0.1189,-0.119,0,0,0,0,0,0,-0.1359,-0.1351,-0.1313,-0.131,-0.1326,-0.1295,-0.129,-0.1282,-0.1251,-0.1246,-0.126,-0.1258,-0.122,-0.1217,-0.1214,-0.1216,-0.1197,-0.1196,-0.1195,-0.1189,-0.1189,-0.119,0,0,0,0,0,0,-0.136,-0.1356,-0.1315,-0.133,-0.1324,-0.1295,-0.1287,-0.1282,-0.1275,-0.1246,-0.1241,-0.1258,-0.122,-0.1215,-0.1208,-0.1214,-0.1195,-0.1194,-0.1188,-0.1189,-0.119,-0.1222,0,0,0,0,0,0,-0.1362,-0.1357,-0.1358,-0.133,-0.1323,-0.131,-0.1287,-0.1281,-0.1273,-0.1269,-0.1243,-0.1238,-0.1219,-0.121,-0.1207,-0.1212,-0.1193,-0.1187,-0.1188,-0.1189,-0.122,-0.1224,-0.1227,0,0,0,0,0,-0.1364,-0.137,-0.1359,-0.1354,-0.1325,-0.131,-0.1306,-0.1284,-0.1273,-0.1274,-0.1256,-0.1239,-0.1214,-0.1209,-0.1206,-0.1211,-0.1187,-0.1188,-0.1189,-0.1219,-0.1223,-0.1227,0,0,0,0,0,0,-0.14,-0.1366,-0.1353,-0.135,-0.1333,-0.1304,-0.1305,-0.1289,-0.1275,-0.1273,-0.1246,-0.124,-0.1235,-0.1222,-0.1218,-0.1213,-0.1198,-0.1199,-0.1222,-0.1226,-0.1229,-0.1232,-0.1192,0,0,0,0,0,-0.1407,-0.1399,-0.1369,-0.1369,-0.1361,-0.1335,-0.1328,-0.1311,-0.1293,-0.1286,-0.1267,-0.125,-0.1238,-0.1231,-0.1219,-0.1218,-0.1211,-0.1219,-0.1223,-0.1225,-0.1226,-0.1224,-0.1227,-0.1194,-0.1194,-0.1194,0,0,-0.1423,-0.1403,-0.1399,-0.1376,-0.1361,-0.1352,-0.1329,-0.1321,-0.1314,-0.1285,-0.1276,-0.1262,-0.1241,-0.1237,-0.1234,-0.1226,-0.1234,-0.1227,-0.1229,-0.1229,-0.1225,-0.1228,-0.1231,-0.1195,-0.1194,-0.1194,0,0,-0.1447,-0.1431,-0.1429,-0.1414,-0.1392,-0.1374,-0.1373,-0.1346,-0.1335,-0.1326,-0.1304,-0.1295,-0.1275,-0.1261,-0.1251,-0.1268,-0.1252,-0.1265,-0.1282,-0.128,-0.1283,-0.1285,-0.129,-0.1292,-0.1266,-0.1266,-0.1266,0,-0.1469,-0.1455,-0.143,-0.1423,-0.1413,-0.1385,-0.1382,-0.1369,-0.1344,-0.1338,-0.1329,-0.1302,-0.1287,-0.1278,-0.1282,-0.1275,-0.1273,-0.1268,-0.1284,-0.1286,-0.1288,-0.1293,-0.1295,-0.1267,-0.1267,-0.1267,-0.1267,0,-0.1483,-0.1474,-0.1475,-0.145,-0.144,-0.1436,-0.1409,-0.1402,-0.1386,-0.1369,-0.1359,-0.1339,-0.1322,-0.1318,-0.1303,-0.1307,-0.1303,-0.1289,-0.1274,-0.1293,-0.1297,-0.1299,-0.127,-0.1269,-0.1269,-0.1268,0,0,-0.153,-0.1491,-0.1491,-0.1479,-0.1452,-0.1444,-0.1437,-0.1419,-0.1414,-0.1397,-0.139,-0.1373,-0.136,-0.1349,-0.1332,-0.133,-0.1344,-0.1317,-0.1316,-0.1322,-0.1346,-0.1356,-0.1359,-0.1333,-0.1333,-0.1333,-0.1348,0,-0.1549,-0.1536,-0.1512,-0.1506,-0.1497,-0.1469,-0.1463,-0.1446,-0.1429,-0.1418,-0.14,-0.1388,-0.1373,-0.1365,-0.1362,-0.1343,-0.1348,-0.1342,-0.1326,-0.1326,-0.1332,-0.1361,-0.1372,-0.1387,-0.1349,-0.1349,-0.135,0,-0.157,-0.1554,-0.1547,-0.1519,-0.1514,-0.151,-0.1491,-0.1481,-0.146,-0.1448,-0.1434,-0.1415,-0.1406,-0.1392,-0.1379,-0.1375,-0.1367,-0.1357,-0.1357,-0.1354,-0.1339,-0.136,-0.1391,-0.1393,-0.1352,-0.1352,-0.1352,0,-0.1605,-0.1581,-0.1574,-0.1564,-0.1532,-0.1529,-0.1515,-0.1493,-0.1483,-0.1467,-0.146,-0.1443,-0.1434,-0.1421,-0.1397,-0.1389,-0.1386,-0.137,-0.1376,-0.1377,-0.1377,-0.1378,-0.1408,-0.1372,-0.1372,-0.1372,-0.1372,0,-0.1629,-0.1625,-0.1588,-0.1584,-0.1579,-0.1552,-0.1548,-0.1531,-0.1512,-0.1503,-0.1478,-0.1471,-0.144,-0.1429,-0.141,-0.1402,-0.1398,-0.1388,-0.1383,-0.139,-0.1392,-0.1385,-0.1383,-0.1373,-0.1373,-0.1372,-0.1372,0,-0.1666,-0.1642,-0.1631,-0.1601,-0.1593,-0.1591,-0.1564,-0.1558,-0.154,-0.1529,-0.1525,-0.1496,-0.1481,-0.1456,-0.1435,-0.1422,-0.1417,-0.1409,-0.1424,-0.1421,-0.1428,-0.1428,-0.1455,-0.1457,-0.1421,-0.1421,-0.1421,0,-0.1684,-0.168,-0.1649,-0.1641,-0.1628,-0.1616,-0.1605,-0.1578,-0.1568,-0.1543,-0.154,-0.1523,-0.1509,-0.1486,-0.1463,-0.1446,-0.1437,-0.1448,-0.1435,-0.1441,-0.1437,-0.1437,-0.1437,-0.1451,-0.1452,-0.1452,-0.1453,0,-0.1716,-0.1704,-0.169,-0.1671,-0.1659,-0.1644,-0.1627,-0.1622,-0.159,-0.158,-0.1564,-0.1553,-0.153,-0.1514,-0.1493,-0.1478,-0.146,-0.1457,-0.1457,-0.1464,-0.1473,-0.1468,-0.1432,-0.1456,-0.1456,-0.1456,-0.1456,-0.1455,-0.1744,-0.1739,-0.1716,-0.1701,-0.1685,-0.1669,-0.1662,-0.1642,-0.1628,-0.1607,-0.1591,-0.1577,-0.1554,-0.1525,-0.1511,-0.1499,-0.1491,-0.1491,-0.1491,-0.1492,-0.1495,-0.1475,-0.1495,-0.1495,-0.1495,-0.1495,-0.1495,0,-0.1775,-0.1759,-0.1745,-0.1721,-0.1709,-0.1692,-0.1672,-0.1663,-0.165,-0.1631,-0.1616,-0.1598,-0.1581,-0.1556,-0.1537,-0.1532,-0.1524,-0.1528,-0.1529,-0.1525,-0.1503,-0.1505,-0.1536,-0.1536,-0.1536,-0.1536,-0.1536,-0.1536,-0.179,-0.1781,-0.1766,-0.1748,-0.1731,-0.1716,-0.1706,-0.1691,-0.1675,-0.1655,-0.1641,-0.1625,-0.1603,-0.1582,-0.1566,-0.1559,-0.1553,-0.1561,-0.1551,-0.1531,-0.1527,-0.1524,-0.1525,-0.156,-0.156,-0.1574,-0.1574,-0.1574]},{"header":{"parameterUnit":"m.s-1","parameterCategory":1,"la1":30.2991,"la2":30.254,"lo1":-89.0895,"lo2":-89.0444,"dy":0.0017,"dx":0.0017,"nx":28,"ny":28,"refTime":"2025-01-24T03:00:00:Z","depth":0,"parameterNumber":3,"parameterNumberName":"V-component_of_WINDS"},"data":[0,0,0,0,0,0,0,0,0,0,0,0,0,0,0,0,0,0,0,0,0,0,0,0,0,0,0,0,0,0,0,0,0,0,0,0,0,0,0,0,0,0,0,0,0,0,0,0,0,0,0,0,0,0,0,0,0,0,-3.7659,-3.766,0,-3.7749,-3.7751,-3.7752,-3.7767,-3.7766,-3.7765,-3.7765,-3.7855,-3.7859,-3.7862,0,0,0,0,0,0,0,0,0,0,0,0,0,-3.7497,-3.75,-3.7658,-3.766,-3.7661,-3.7749,-3.7751,-3.7752,-3.7767,-3.7766,-3.7765,-3.7764,-3.7854,-3.7858,-3.7862,0,0,0,0,0,0,0,0,0,0,0,0,0,-3.7575,-3.7501,-3.7658,-3.7679,-3.7682,-3.7749,-3.7751,-3.7752,-3.7767,-3.7766,-3.7765,-3.7764,-3.7853,-3.7858,-3.7862,-3.7915,0,0,-3.7877,-3.7879,0,0,0,0,0,0,0,0,-3.7571,-3.7581,-3.7675,-3.7678,-3.7681,-3.7746,-3.7727,-3.7807,-3.7767,-3.7735,-3.7765,-3.7763,-3.782,-3.7827,-3.7847,-3.7919,-3.7923,-3.7877,-3.788,-3.7882,-3.7883,0,0,0,0,0,0,0,-3.7565,-3.7577,-3.7694,-3.7676,-3.768,-3.7684,-3.7693,-3.7742,-3.7783,-3.7737,-3.7739,-3.775,-3.7821,-3.7842,-3.7849,-3.7924,-3.7877,-3.7881,-3.7884,-3.7886,-3.8045,-3.8046,0,0,0,0,0,0,-3.7557,-3.7573,-3.7692,-3.7697,-3.7622,-3.7687,-3.7698,-3.7726,-3.7782,-3.779,-3.775,-3.775,-3.7835,-3.7843,-3.7852,-3.7918,-3.7882,-3.7887,-3.7889,-3.8044,-3.8045,-3.8047,0,0,0,0,0,0,-3.7553,-3.7567,-3.7688,-3.7635,-3.7651,-3.7691,-3.7722,-3.7728,-3.7749,-3.7792,-3.7799,-3.7764,-3.7834,-3.7846,-3.7899,-3.7921,-3.7889,-3.7893,-3.8042,-3.8044,-3.8046,-3.8049,0,0,0,0,0,0,-3.7548,-3.7566,-3.7586,-3.7636,-3.7654,-3.7734,-3.7724,-3.7731,-3.7758,-3.7758,-3.7807,-3.7814,-3.7834,-3.7892,-3.7904,-3.7927,-3.7897,-3.804,-3.8043,-3.8045,-3.8048,-3.8051,-3.8055,0,0,0,0,0,-3.7542,-3.7582,-3.7587,-3.7601,-3.768,-3.7735,-3.7746,-3.7769,-3.7759,-3.778,-3.7808,-3.7812,-3.7917,-3.7898,-3.7911,-3.7936,-3.8039,-3.8042,-3.8045,-3.8046,-3.8051,-3.8055,0,0,0,0,0,0,-3.7533,-3.7589,-3.7595,-3.7652,-3.7689,-3.7738,-3.7765,-3.7773,-3.7812,-3.781,-3.7837,-3.7848,-3.79,-3.7923,-3.7901,-3.799,-3.7977,-3.7983,-3.7973,-3.7978,-3.7981,-3.7975,-3.79,0,0,0,0,0,-3.7538,-3.7578,-3.7625,-3.7671,-3.7689,-3.7724,-3.7749,-3.7763,-3.7802,-3.7817,-3.7849,-3.7886,-3.7927,-3.7954,-3.7994,-3.8051,-3.8062,-3.8075,-3.8078,-3.8081,-3.8086,-3.8119,-3.8125,-3.8057,-3.8057,-3.8057,0,0,-3.7548,-3.7584,-3.7607,-3.767,-3.77,-3.7742,-3.7737,-3.778,-3.7811,-3.7824,-3.7877,-3.7902,-3.7944,-3.8001,-3.8027,-3.8021,-3.8107,-3.8085,-3.8087,-3.809,-3.8123,-3.8129,-3.8135,-3.8059,-3.8059,-3.8059,0,0,-3.7587,-3.7618,-3.7661,-3.7691,-3.7738,-3.7761,-3.7771,-3.7819,-3.7836,-3.789,-3.7901,-3.7938,-3.8008,-3.8039,-3.8063,-3.8116,-3.8122,-3.8128,-3.8147,-3.8178,-3.8184,-3.8189,-3.8208,-3.8215,-3.8133,-3.8133,-3.8133,0,-3.7593,-3.7657,-3.7681,-3.7725,-3.7753,-3.7767,-3.7811,-3.7839,-3.7896,-3.7914,-3.7908,-3.7997,-3.8027,-3.8091,-3.8104,-3.8123,-3.8136,-3.8123,-3.8181,-3.8186,-3.8191,-3.821,-3.8217,-3.8133,-3.8133,-3.8133,-3.8133,0,-3.7663,-3.7706,-3.7735,-3.7791,-3.7822,-3.7865,-3.7896,-3.7924,-3.7936,-3.796,-3.8015,-3.8052,-3.81,-3.8117,-3.8128,-3.8183,-3.8178,-3.8176,-3.8164,-3.8198,-3.8216,-3.8224,-3.8134,-3.8134,-3.8134,-3.8134,0,0,-3.7698,-3.7768,-3.7778,-3.7804,-3.7857,-3.7891,-3.7935,-3.7984,-3.8008,-3.8046,-3.8084,-3.8144,-3.8143,-3.8171,-3.8187,-3.8215,-3.8255,-3.8209,-3.8211,-3.8217,-3.8318,-3.832,-3.8328,-3.8259,-3.8261,-3.8262,-3.8315,0,-3.7744,-3.7824,-3.7848,-3.7915,-3.7957,-3.7972,-3.801,-3.8047,-3.807,-3.8108,-3.8133,-3.8176,-3.8171,-3.8188,-3.8216,-3.8244,-3.8276,-3.8241,-3.8295,-3.8296,-3.8284,-3.8337,-3.8339,-3.8387,-3.8322,-3.8323,-3.8324,0,-3.7809,-3.785,-3.7922,-3.7971,-3.7989,-3.8023,-3.807,-3.8106,-3.8148,-3.8163,-3.8195,-3.8209,-3.8255,-3.824,-3.8305,-3.8281,-3.8304,-3.8321,-3.8324,-3.833,-3.8313,-3.8346,-3.8403,-3.8411,-3.8336,-3.8335,-3.8334,0,-3.7829,-3.7902,-3.7955,-3.7977,-3.8035,-3.8059,-3.8084,-3.8125,-3.8153,-3.8194,-3.8212,-3.8257,-3.8282,-3.8317,-3.8342,-3.8329,-3.8405,-3.8392,-3.8419,-3.8419,-3.8435,-3.8434,-3.8498,-3.8449,-3.8449,-3.8449,-3.8449,0,-3.7878,-3.7921,-3.7965,-3.7997,-3.8047,-3.8074,-3.8122,-3.8147,-3.8184,-3.8221,-3.8237,-3.8271,-3.8303,-3.8342,-3.8362,-3.8413,-3.8424,-3.8437,-3.8442,-3.8436,-3.8435,-3.8452,-3.845,-3.8451,-3.845,-3.845,-3.8449,0,-3.7908,-3.7939,-3.7998,-3.8049,-3.8063,-3.8097,-3.814,-3.8172,-3.8196,-3.8244,-3.8257,-3.8295,-3.8342,-3.837,-3.8429,-3.8443,-3.8499,-3.8503,-3.8486,-3.8488,-3.8514,-3.8512,-3.8592,-3.8604,-3.8547,-3.8547,-3.8548,0,-3.7938,-3.7972,-3.8027,-3.8054,-3.808,-3.8123,-3.8152,-3.818,-3.821,-3.8261,-3.8287,-3.8335,-3.8375,-3.845,-3.8482,-3.8528,-3.8532,-3.8558,-3.8539,-3.8533,-3.8534,-3.8532,-3.8536,-3.8561,-3.8561,-3.8562,-3.8562,0,-3.7988,-3.8002,-3.8044,-3.8092,-3.8127,-3.8166,-3.8204,-3.8225,-3.826,-3.8293,-3.8342,-3.8373,-3.8434,-3.8482,-3.853,-3.8556,-3.8565,-3.8567,-3.8576,-3.8571,-3.856,-3.8567,-3.8495,-3.8565,-3.8565,-3.8565,-3.8565,-3.8564,-3.802,-3.8051,-3.8096,-3.8142,-3.8175,-3.8211,-3.8244,-3.8273,-3.8315,-3.8368,-3.8381,-3.8433,-3.8475,-3.8541,-3.8568,-3.8608,-3.8604,-3.8617,-3.862,-3.8623,-3.8624,-3.8553,-3.8617,-3.8617,-3.8617,-3.8617,-3.8617,0,-3.8071,-3.8101,-3.8144,-3.8198,-3.8235,-3.8242,-3.8285,-3.8315,-3.8361,-3.8399,-3.8439,-3.8496,-3.8542,-3.8579,-3.8627,-3.8652,-3.8658,-3.8664,-3.8663,-3.8669,-3.8624,-3.8612,-3.8659,-3.8659,-3.8659,-3.8659,-3.8659,-3.8659,-3.8103,-3.8157,-3.8176,-3.8247,-3.8276,-3.8327,-3.8352,-3.8385,-3.8416,-3.8479,-3.8519,-3.8543,-3.8581,-3.8632,-3.8675,-3.8685,-3.8702,-3.8708,-3.8718,-3.8676,-3.8671,-3.8667,-3.8656,-3.8711,-3.8711,-3.8759,-3.876,-3.876]}]]